Location: ???????
(55.8719°N, 38.1523°E)
Time: 06:44:07
(UTC+00:00)

Cosmos 1461 - Pass Details

Date: 14 April 2024
Orbit: 499 x 586 km, 65.0° (Epoch: 22 May)

Event Time Altitude Azimuth Distance (km) Brightness Sun altitude
Rises 00:58:14 0° 307° (NW) 2,634 6.1 -11.5°
Reaches altitude 10° 01:00:43 10° 293° (WNW) 1,731 5.1 -11.2°
Maximum altitude 01:03:48 23° 240° (WSW) 1,113 3.8 -10.8°
Drops below altitude 10° 01:06:49 10° 187° (S) 1,704 4.9 -10.5°
Sets 01:09:15 0° 172° (S) 2,581 6.0 -10.2°
